Theta_e
316 311 302 302 302 303 302 303 303 303 303 303 304 304 305 305 305 305 306 307 308 307 308 315 317 313 314 319 316 314 314 314 314 315 315 316 316 317 319 318 318 320 319 317 317 317 317
310 303 301 302 303 302 301 301 302 302 303 304 304 305 305 305 305 306 307 310 308 307 308 314 317 312 315 317 314 314 313 314 315 315 315 315 315 314 315 316 318 316 317 318 318 318 317
305 301 302 304 302 300 300 300 300 301 302 303 303 304 305 305 305 307 311 309 308 307 309 315 314 311 316 315 314 313 312 313 313 315 315 315 315 315 314 315 316 318 318 319 319 318 318
302 302 303 300 300 300 300 300 301 301 302 303 303 304 305 305 306 310 310 307 307 308 313 314 311 316 315 313 314 314 314 314 314 314 314 314 315 315 315 316 317 319 320 321 317 319 317
302 303 301 300 300 300 300 301 302 303 303 304 304 305 305 306 308 312 309 309 309 311 312 312 313 318 315 313 315 314 313 314 314 315 314 313 316 317 317 320 320 320 322 320 317 316 318
302 301 300 300 300 301 301 302 303 303 304 304 305 305 305 307 310 312 312 313 313 313 312 312 314 317 315 317 315 313 313 313 315 315 315 317 317 320 319 320 321 320 319 318 318 317 319
302 300 300 300 300 301 302 304 304 305 305 305 304 304 306 308 312 312 314 316 320 318 318 318 318 317 316 315 313 313 313 314 314 315 317 317 319 319 319 318 318 318 318 318 317 316 319
301 300 300 300 301 302 303 304 304 305 305 305 304 305 306 308 311 313 315 319 317 317 317 316 315 315 315 314 315 314 314 315 315 316 316 318 320 317 316 317 317 317 318 318 316 316 318
300 300 299 300 302 303 304 304 305 305 306 306 305 305 307 307 309 311 313 313 314 316 318 316 315 316 315 315 315 315 315 315 316 317 317 318 318 315 315 316 317 318 318 318 318 317 318
299 299 299 300 302 303 304 304 304 305 306 306 306 305 306 307 309 310 313 313 314 315 321 318 317 316 315 316 316 313 313 315 316 317 316 318 315 316 316 317 317 319 316 316 317 318 320
299 299 300 300 302 303 304 304 305 305 306 307 307 306 305 305 307 313 311 313 315 315 323 317 317 315 314 316 316 316 314 315 317 317 316 317 316 316 317 317 316 318 316 317 318 318 319
298 299 300 301 302 303 304 304 305 305 305 306 307 308 306 306 310 311 311 314 317 320 321 319 317 317 317 316 316 315 317 316 315 317 317 317 315 316 317 315 315 316 317 317 317 318 319
298 298 300 301 302 303 304 305 305 305 305 306 307 307 308 307 311 313 314 318 320 320 317 319 318 317 318 317 317 317 319 319 321 320 319 317 317 315 314 316 316 316 318 322 323 321 322
298 298 300 301 302 303 304 305 305 305 305 305 306 307 308 309 312 314 316 318 318 319 319 316 317 316 318 317 317 318 319 320 318 319 319 318 319 316 314 316 317 317 318 320 320 320 321
298 298 300 301 302 303 304 305 305 305 304 305 306 307 308 310 312 312 315 319 322 320 316 317 317 317 318 318 317 318 318 319 316 316 321 319 318 314 313 313 314 317 317 316 317 317 317
298 298 300 301 302 303 304 304 305 304 304 305 307 310 308 309 311 313 319 318 317 313 314 315 319 318 319 318 318 318 318 314 315 314 315 317 319 314 314 313 314 315 315 317 318 317 318
298 298 299 300 301 303 304 304 304 304 304 305 307 312 308 309 311 315 318 318 314 310 312 316 317 317 317 317 318 318 317 312 311 313 313 315 316 316 315 315 316 316 316 315 316 316 316
297 298 299 300 301 302 303 304 303 304 304 305 307 314 308 308 316 315 318 314 309 310 310 312 313 314 315 314 317 318 317 313 308 311 315 314 317 317 316 313 313 314 315 315 315 316 316
297 298 299 300 301 302 302 303 303 303 303 304 310 310 309 309 317 314 310 308 308 309 308 310 310 310 310 312 315 316 313 306 306 311 312 312 315 315 315 315 314 315 312 312 313 315 315
297 297 298 299 300 301 301 302 302 303 303 303 309 313 311 310 310 314 312 311 308 305 305 306 307 307 310 310 309 313 312 306 305 305 305 308 314 314 315 314 313 314 312 311 311 313 312
297 296 297 298 299 300 301 301 302 302 303 303 307 309 307 314 311 311 311 310 309 308 305 305 306 307 309 309 309 309 308 305 304 302 305 308 311 310 310 310 309 309 309 309 309 309 309
297 296 296 297 298 299 299 300 301 302 302 303 309 308 306 306 306 310 307 310 309 305 306 305 306 304 304 306 305 306 304 303 304 303 303 303 306 304 304 304 304 304 304 304 304 304 305
297 296 295 296 297 298 298 299 300 301 301 302 303 305 309 303 307 309 308 307 307 304 302 303 303 303 303 302 301 301 301 301 301 302 302 301 303 303 303 302 303 304 304 303 304 303 303
297 296 295 295 295 296 297 298 299 300 301 301 303 304 308 307 306 306 304 304 304 303 303 301 301 303 301 300 300 301 301 301 302 302 302 301 301 303 304 304 304 304 303 303 303 302 302
297 295 294 294 295 295 296 297 298 299 299 299 300 302 306 306 304 303 303 303 302 301 301 301 300 300 300 300 303 303 304 303 302 301 302 302 303 305 304 305 305 303 303 303 303 304 303
297 296 294 295 295 296 296 296 297 297 298 298 299 300 304 304 304 302 302 302 302 302 301 300 299 299 300 302 302 303 304 304 303 302 301 302 303 304 305 303 302 304 302 301 301 302 302
297 296 294 295 296 296 296 296 296 296 297 297 298 299 303 302 300 301 302 302 301 301 302 300 299 299 300 302 303 303 303 303 303 302 303 303 304 305 305 305 304 302 301 301 301 303 300
297 296 295 296 297 296 296 296 295 295 296 296 296 297 301 302 299 299 299 299 299 300 301 300 299 299 300 302 302 303 303 303 301 302 302 301 301 303 302 303 303 301 301 301 300 298 298
297 296 295 296 297 297 297 296 295 295 295 295 297 298 299 301 300 298 297 297 298 298 299 298 299 299 299 301 300 301 301 301 300 300 299 299 299 301 300 301 301 301 300 299 297 297 297
Wind_Speed
25 24 17 14 13 12 12 12 12 11 11 11 11 10 9 8 8 7 7 5 3 3 6 8 8 8 13 4 6 6 4 3 4 4 3 1 1 1 2 2 2 1 3 1 2 4 2
26 19 15 13 13 12 12 11 11 12 11 11 10 9 7 6 6 6 7 5 0 4 8 10 9 10 7 4 6 4 3 3 2 2 3 3 2 2 3 1 4 2 1 2 3 3 2
22 17 13 12 12 11 9 10 11 11 11 10 9 8 5 3 4 5 5 3 4 6 9 10 10 11 3 5 5 3 3 2 2 2 1 3 1 3 1 3 1 4 7 5 6 4 5
18 15 12 12 9 9 9 9 10 11 12 11 9 5 3 2 3 3 5 6 8 10 11 12 14 9 5 8 4 3 2 1 1 2 2 1 2 2 2 2 5 6 7 7 6 1 3
16 13 12 10 8 7 8 10 11 12 11 9 7 5 4 4 4 6 9 12 12 12 12 12 8 2 7 5 1 1 2 2 1 0 1 1 0 2 4 8 8 8 3 3 6 3 3
15 11 11 7 6 7 9 10 12 13 11 10 8 6 5 5 6 9 12 14 15 15 13 10 8 6 5 2 1 2 1 2 2 2 3 3 4 6 6 7 3 5 5 4 2 4 6
13 11 8 6 5 6 8 10 12 13 11 10 9 7 6 6 7 10 14 11 3 6 7 6 4 10 7 3 4 3 0 1 2 4 4 2 6 3 5 4 5 1 2 3 4 3 3
11 8 3 3 5 7 9 10 12 13 12 11 9 6 5 6 7 10 8 3 3 11 9 8 8 8 5 4 3 4 2 3 3 3 2 5 3 6 3 2 3 3 4 3 4 1 5
8 5 2 3 4 6 8 10 12 13 12 11 10 7 4 6 7 6 4 7 15 10 4 5 5 5 1 3 2 4 4 1 3 3 2 6 8 1 3 3 5 3 5 0 5 5 5
4 2 1 3 5 6 8 10 11 12 12 10 11 9 4 5 5 5 4 13 11 4 6 4 1 2 1 1 2 3 5 3 3 3 2 2 3 2 3 4 5 6 2 1 4 5 4
2 2 1 3 5 7 9 10 11 12 11 9 9 9 6 3 3 1 4 9 6 0 4 3 4 2 2 2 3 3 6 2 3 2 4 5 2 2 4 4 3 6 1 2 4 8 9
2 0 1 2 4 6 8 10 10 10 10 8 5 9 7 5 5 3 5 8 3 5 2 4 2 3 3 4 3 3 3 4 1 3 2 3 1 2 5 2 2 3 3 5 5 7 6
2 1 1 2 3 5 7 8 9 9 9 7 4 5 6 5 1 3 6 3 5 4 1 4 2 2 3 3 3 6 6 9 4 3 5 5 3 3 1 4 3 5 6 4 6 5 1
3 3 2 1 2 4 6 7 8 9 8 5 2 3 5 4 4 4 4 4 5 3 4 2 1 1 1 2 3 2 3 2 8 6 4 4 6 2 2 2 5 3 5 6 6 6 3
4 3 3 1 2 4 6 7 8 9 8 5 1 2 6 4 4 2 4 6 4 3 1 2 3 5 4 2 3 3 4 3 6 9 5 4 4 4 4 2 3 5 4 4 6 10 6
5 5 4 1 2 4 5 6 7 8 7 3 2 2 5 2 3 2 5 4 2 2 2 3 4 2 3 3 4 4 2 4 3 6 6 5 4 1 3 2 1 5 4 4 5 4 8
6 5 4 1 2 4 5 7 7 7 6 2 4 2 5 2 4 2 3 4 4 3 1 4 0 1 0 1 2 2 4 3 5 5 5 5 3 6 3 1 5 2 4 3 3 4 5
5 5 3 1 2 4 5 6 8 7 6 1 2 3 5 3 3 2 3 3 3 3 2 2 2 3 2 1 1 2 2 4 7 6 4 5 5 5 3 4 2 3 4 5 4 1 3
5 5 4 1 1 4 6 7 7 7 5 1 1 1 4 3 2 4 6 5 4 3 3 1 2 3 1 2 2 1 3 3 7 4 3 6 3 4 7 4 3 2 3 2 3 3 8
5 5 5 2 2 4 6 7 8 7 5 1 1 2 4 5 3 6 7 6 4 4 3 3 2 1 3 3 1 3 4 2 3 6 4 3 4 8 7 3 3 3 3 2 6 4 9
5 4 4 2 2 4 6 7 8 7 4 1 2 2 2 2 4 5 3 5 7 4 2 1 2 0 2 3 3 4 2 4 3 5 1 2 5 4 8 6 7 9 9 9 10 10 8
5 5 4 3 2 4 6 8 8 7 4 2 1 3 5 5 4 6 1 4 6 5 1 1 2 2 1 1 5 3 1 1 1 1 0 1 1 4 9 2 6 10 10 9 9 10 10
7 6 5 4 4 5 6 7 8 7 3 2 4 10 3 3 3 4 2 6 7 9 4 3 6 5 6 6 4 3 2 2 3 3 1 2 2 2 2 1 7 10 8 6 0 1 4
8 6 5 5 5 6 6 6 7 5 3 3 5 6 2 3 3 2 6 4 9 3 6 5 3 2 3 3 7 8 7 6 4 5 2 1 2 2 4 4 5 5 3 2 1 1 1
9 8 6 5 6 7 7 7 6 6 5 4 7 5 3 4 7 9 11 9 11 10 10 8 6 5 4 6 3 4 4 3 3 4 1 2 2 3 3 4 5 8 5 4 5 5 5
10 8 7 6 7 7 7 8 7 7 7 5 6 7 6 12 2 11 10 9 7 4 6 4 4 3 4 5 3 2 2 1 3 3 1 3 4 4 3 3 4 7 6 2 2 11 12
10 9 8 7 7 6 6 7 8 7 7 6 7 7 6 8 5 8 4 6 2 2 2 5 5 3 3 4 3 3 3 2 3 4 4 4 5 8 7 6 5 8 5 5 4 4 6
10 9 8 7 7 6 6 6 6 6 7 7 7 5 7 7 9 4 4 5 4 4 3 7 5 3 3 4 2 2 3 3 2 0 2 4 3 5 5 5 7 10 7 5 9 8 12
11 9 9 8 6 5 5 6 6 5 5 6 11 13 14 8 7 9 8 8 8 6 6 5 2 3 3 0 1 1 2 2 1 2 3 4 7 3 4 1 3 6 9 10 14 16 17
Wind_Direction
327 326 330 335 339 343 342 345 345 343 341 341 341 339 341 332 326 328 326 320 294 220 171 163 155 148 136 136 94 153 142 86 43 47 44 10 310 201 159 122 171 101 95 345 358 314 310
329 327 334 339 339 342 347 350 354 349 352 351 352 352 350 342 329 336 331 328 341 172 162 157 151 149 145 145 127 146 142 69 69 61 39 39 17 334 99 99 293 85 106 90 86 121 90
328 326 333 344 344 349 356 1 360 356 352 353 358 360 359 359 350 355 357 15 110 138 146 144 138 128 95 109 118 90 95 137 86 96 91 53 21 286 152 145 152 165 147 137 82 110 116
323 326 339 349 357 360 356 13 14 4 357 359 360 9 31 48 40 47 61 81 110 124 132 134 131 95 90 138 127 60 108 79 91 63 113 43 39 146 237 150 194 211 218 195 72 149 128
315 328 341 350 354 4 15 20 14 12 10 11 12 33 65 63 63 92 95 97 105 111 118 124 117 90 114 111 99 44 105 196 174 93 335 342 196 222 189 217 185 200 226 177 145 44 196
312 330 332 342 359 14 20 25 19 18 19 21 28 47 71 65 102 111 111 106 100 102 101 95 105 137 131 136 151 108 92 150 239 244 257 244 229 234 217 217 278 164 192 178 234 87 118
306 321 334 349 11 19 26 24 19 20 25 31 34 43 67 76 115 130 129 113 86 105 57 58 74 95 101 102 84 73 162 213 246 245 250 188 251 220 46 356 353 14 269 244 96 127 111
304 319 349 6 27 25 23 21 18 18 21 26 31 56 83 78 131 149 166 210 188 140 90 57 67 75 81 111 131 63 13 259 244 262 246 215 248 70 47 4 317 297 273 165 87 156 245
306 316 19 51 45 28 20 15 19 16 19 23 26 37 101 105 99 150 186 172 146 138 142 74 73 65 66 47 73 37 12 290 301 248 302 308 67 81 282 226 245 223 285 97 306 159 241
314 321 66 50 34 22 16 11 11 16 15 21 27 29 51 109 59 107 136 150 155 150 195 97 107 41 356 139 111 27 9 336 206 332 305 358 90 269 231 247 280 268 61 269 190 217 273
294 337 21 57 39 15 10 9 6 10 13 18 29 36 46 67 112 71 162 177 175 196 237 74 78 5 28 329 78 35 16 283 352 28 267 81 152 241 252 25 319 50 35 255 254 260 286
257 255 71 61 39 13 7 4 3 4 8 13 26 31 42 74 62 99 137 148 146 229 137 121 69 359 184 39 47 7 6 30 35 270 226 59 103 301 11 69 4 125 221 232 256 256 246
237 209 139 60 31 15 1 1 358 356 1 358 5 25 29 55 139 101 134 102 234 281 164 100 56 25 90 69 80 25 47 46 19 273 185 156 138 127 294 240 165 225 248 238 206 198 312
215 181 165 141 9 13 1 355 353 350 354 355 358 69 38 64 72 117 129 224 252 47 38 79 7 172 240 328 90 97 185 146 42 337 292 279 185 182 25 328 339 230 305 298 303 325 42
210 188 181 172 4 356 1 353 353 352 353 357 29 66 30 47 56 118 245 232 36 53 91 175 181 224 162 192 299 177 52 50 28 7 322 310 157 121 60 308 297 129 232 9 292 258 270
201 188 181 209 351 359 355 356 353 354 354 359 120 163 359 48 58 101 255 56 115 44 313 226 231 280 213 139 227 234 188 31 6 10 335 30 270 152 109 230 164 281 5 245 197 270 270
197 189 187 183 358 356 1 356 3 358 358 4 129 218 334 61 74 241 292 69 119 74 335 325 305 182 20 190 293 170 72 59 359 325 318 329 244 140 192 322 17 210 221 226 302 273 292
192 185 181 167 342 2 4 5 2 4 3 8 160 228 331 139 198 41 102 81 99 99 51 39 38 39 334 10 186 166 148 39 360 325 340 25 313 268 35 48 307 287 312 286 267 277 250
172 172 181 190 348 5 7 8 4 6 6 130 220 101 10 150 222 123 130 106 72 143 50 52 111 20 112 146 230 184 107 56 18 15 10 3 211 270 170 172 150 31 29 358 302 270 266
166 156 163 155 11 2 7 7 8 6 13 123 269 200 56 49 24 140 146 147 126 67 90 75 105 198 178 153 91 157 150 85 29 19 331 303 283 274 296 10 346 215 197 318 313 276 287
159 142 142 120 44 20 12 7 11 10 26 110 75 71 112 106 78 116 97 159 154 142 111 152 129 268 241 177 174 152 155 161 90 7 295 317 268 301 280 276 266 274 271 270 255 269 268
152 132 117 94 48 32 13 13 15 11 15 103 79 150 88 95 121 138 174 149 167 118 336 147 260 132 192 123 15 163 198 282 21 63 326 21 277 301 279 234 268 273 265 264 267 272 273
151 138 125 102 59 36 21 19 15 14 15 110 113 136 124 155 156 228 85 136 156 139 78 80 132 137 114 78 42 41 12 49 20 319 304 276 275 253 246 310 301 269 245 224 266 228 285
147 136 123 100 70 47 37 28 28 27 32 113 160 134 176 133 200 112 145 136 145 143 136 115 122 218 113 116 105 90 97 113 104 27 250 280 253 270 289 301 244 81 78 83 240 192 240
151 143 133 109 84 57 46 43 40 45 55 90 152 130 112 116 114 122 126 119 115 99 97 106 80 90 134 150 177 159 154 178 133 35 184 239 257 253 273 256 298 168 188 193 227 236 204
158 150 138 116 87 64 52 51 54 54 62 71 107 143 106 123 109 147 135 152 149 132 145 130 127 124 162 218 210 233 241 21 170 166 82 211 261 267 200 270 276 92 116 96 20 268 160
162 156 144 126 100 76 59 53 54 59 66 72 92 110 96 102 127 144 138 170 144 158 105 145 159 158 194 207 201 215 200 324 226 219 184 202 225 236 249 257 282 128 140 161 247 53 155
166 156 146 134 119 98 72 58 55 59 61 70 88 121 115 105 123 104 122 137 145 190 178 140 159 192 197 207 234 177 250 181 246 255 215 244 239 214 234 241 255 148 158 208 16 315 292
165 158 154 148 134 108 77 52 49 60 79 94 98 93 113 113 130 133 130 145 132 129 129 155 51 100 63 20 269 342 202 205 320 248 198 254 228 301 239 32 59 201 254 276 292 288 290